DW8248 Weather Reports


time (UTC)temp
C
wind
direction
speed
KPH
gust
KPH
rain 1hr
cm
rain 24hr
cm
rain mn
cm
humidity
%
barometer
mb
20260905150006 30 231 12.9 22.5 0.00 0.00 0.00 74 1014.3
20260905144946 30 223 16.1 22.5 0.00 0.00 0.00 74 1014.3
20260905144001 30 217 14.5 19.3 0.00 0.00 0.00 76 1014.4
20260905142934 30 242 14.5 19.3 0.00 0.00 0.00 75 1014.3
20260905141951 30 213 14.5 19.3 0.00 0.00 0.00 77 1014.4
20260905140934 29 202 11.3 17.7 0.00 0.00 0.00 77 1014.3
20260905135905 29 205 11.3 14.5 0.00 0.00 0.00 77 1014.4
20260905134849 29 221 8.0 12.9 0.00 0.00 0.00 80 1014.4
20260905133817 28 210 9.7 14.5 0.00 0.00 0.00 80 1014.5
20260905132748 28 224 11.3 17.7 0.00 0.00 0.00 81 1014.6
20260905131809 28 221 11.3 17.7 0.00 0.00 0.00 81 1014.5
20260905124524 27 241 8.0 11.3 0.00 0.00 0.00 85 1014.3
20260905123518 27 215 8.0 9.7 0.00 0.00 0.00 86 1014.3
20260905122444 27 208 6.4 9.7 0.00 0.00 0.00 86 1014.4
20260905120330 27 236 4.8 8.0 0.00 0.00 0.00 86 1014.4
20260905114201 27 229 8.0 11.3 0.00 0.00 0.00 86 1014.0
20260905112010 27 211 9.7 11.3 0.00 0.00 0.00 85 1013.7
20260905110945 27 215 9.7 12.9 0.00 0.00 0.00 85 1013.5
20260905110006 27 219 9.7 12.9 0.00 0.00 0.00 85 1013.4
20260905105016 27 213 6.4 9.7 0.00 0.00 0.00 84 1013.4
20260905104032 27 223 4.8 8.0 0.00 0.00 0.00 84 1013.5
20260905102958 27 223 6.4 9.7 0.00 0.00 0.00 83 1013.4
20260905100853 27 211 6.4 9.7 0.00 0.00 0.00 83 1013.3
20260905095840 28 194 6.4 9.7 0.00 0.00 0.00 82 1013.4
20260905094836 28 193 8.0 14.5 0.00 0.00 0.00 83 1013.5
20260905093816 28 205 11.3 14.5 0.00 0.00 0.00 82 1013.4
20260905092819 28 188 8.0 12.9 0.00 0.00 0.00 82 1013.4
20260905091748 28 192 9.7 16.1 0.00 0.00 0.00 82 1013.3
20260905090720 28 0 8.0 14.5 0.00 0.00 0.00 82 1013.4
20260905084603 28 196 9.7 16.1 0.00 0.00 0.00 82 1013.2
20260905083529 28 205 11.3 16.1 0.00 0.00 0.00 82 1013.2
20260905082504 28 190 9.7 12.9 0.00 0.00 0.00 82 1013.3
20260905081435 28 202 9.7 12.9 0.00 0.00 0.00 82 1013.3
20260905080456 28 180 6.4 11.3 0.00 0.00 0.00 82 1013.4
20260905075459 28 196 8.0 11.3 0.00 0.00 0.00 82 1013.4
20260905073350 28 209 6.4 11.3 0.00 0.00 0.00 81 1013.4
20260905071306 28 209 11.3 14.5 0.00 0.00 0.00 81 1013.4
20260905070308 28 187 11.3 16.1 0.00 0.00 0.00 81 1013.3
20260905065234 28 211 12.9 16.1 0.00 0.00 0.00 80 1013.5
20260905064247 28 197 12.9 16.1 0.00 0.00 0.00 81 1013.6
20260905063236 28 201 14.5 19.3 0.00 0.00 0.00 80 1013.6
20260905061052 29 183 12.9 19.3 0.00 0.00 0.00 80 1013.8
20260905060037 29 155 11.3 19.3 0.00 0.00 0.00 79 1013.8
20260905055044 29 156 11.3 16.1 0.00 0.00 0.00 79 1014.0
20260905052942 29 157 11.3 17.7 0.00 0.00 0.00 79 1014.4
20260905051908 29 175 12.9 17.7 0.00 0.00 0.00 79 1014.4
20260905045725 29 194 9.7 14.5 0.00 0.00 0.00 79 1014.7
20260905044745 29 189 9.7 14.5 0.00 0.00 0.00 79 1014.8
20260905043802 29 194 6.4 14.5 0.00 0.00 0.00 79 1014.9
20260905042757 29 191 3.2 8.0 0.00 0.00 0.00 81 1015.0
20260905041802 29 201 3.2 8.0 0.00 0.00 0.00 81 1015.0
20260905040821 28 218 3.2 8.0 0.00 0.00 0.00 81 1015.2
20260905035752 28 225 4.8 6.4 0.00 0.00 0.00 81 1015.0
20260905034752 28 242 4.8 6.4 0.00 0.00 0.00 81 1014.9
20260905033721 28 243 4.8 6.4 0.00 0.00 0.00 80 1014.9
20260905031544 29 246 4.8 9.7 0.00 0.00 0.00 79 1015.2
20260905030531 28 257 6.4 9.7 0.00 0.00 0.00 79 1015.3
20260905025459 29 240 8.0 12.9 0.00 0.00 0.00 78 1015.2
20260905024452 29 217 11.3 12.9 0.00 0.00 0.00 78 1015.0
20260905023506 29 212 9.7 14.5 0.00 0.00 0.00 78 1015.0
20260905022512 29 211 11.3 14.5 0.00 0.00 0.00 78 1015.0
20260905021515 30 189 9.7 14.5 0.00 0.00 0.00 78 1014.9
20260905020458 30 188 9.7 14.5 0.00 0.00 0.00 77 1014.9
20260905015444 30 207 9.7 14.5 0.00 0.00 0.00 78 1014.8
20260905014423 30 210 12.9 17.7 0.00 0.00 0.00 77 1014.7
20260905013414 30 202 12.9 17.7 0.00 0.00 0.00 75 1014.8
20260905012415 30 190 12.9 17.7 0.00 0.00 0.00 78 1014.8
20260905011350 30 181 14.5 20.9 0.00 0.00 0.00 80 1014.7
20260905010320 30 181 9.7 20.9 0.00 0.00 0.00 82 1014.7
20260905005325 30 0 4.8 11.3 0.00 0.00 0.00 83 1014.5
20260905004305 30 0 3.2 8.0 0.00 0.00 0.00 83 1014.6
20260905003322 30 0 4.8 11.3 0.00 0.00 0.00 82 1014.5
20260905001210 30 180 6.4 14.5 0.00 0.00 0.00 82 1014.3
20260905000218 30 145 9.7 14.5 0.00 0.00 0.00 82 1014.3
20260904235159 30 0 6.4 16.1 0.00 0.00 0.00 81 1014.4
20260904234123 30 0 8.0 16.1 0.00 0.00 0.00 81 1014.3
20260904233100 30 0 8.0 16.1 0.00 0.00 0.00 81 1014.3
20260904232041 30 94 8.0 14.5 0.00 0.00 0.00 81 1014.1
20260904231007 30 148 8.0 16.1 0.00 0.00 0.00 83 1014.1
20260904230004 30 0 8.0 14.5 0.00 0.00 0.00 82 1013.9
20260904223906 30 134 8.0 17.7 0.00 0.00 0.00 83 1014.1
20260904220526 30 0 12.9 22.5 0.00 0.00 0.00 82 1013.1
20260904215514 30 0 12.9 25.7 0.00 0.00 0.00 82 1013.1
20260904213347 30 0 14.5 24.1 0.00 0.00 0.00 82 1013.4
20260904211219 30 169 11.3 19.3 0.00 0.00 0.00 81 1013.8
20260904210233 30 0 11.3 22.5 0.00 0.00 0.00 82 1013.7
20260904205230 30 109 12.9 25.7 0.00 0.00 0.00 82 1013.7
20260904204217 30 0 12.9 25.7 0.00 0.00 0.00 81 1013.6
20260904203214 30 136 11.3 20.9 0.00 0.00 0.00 81 1013.6
20260904202216 30 144 12.9 22.5 0.00 0.00 0.00 81 1013.6
20260904201203 30 94 12.9 22.5 0.00 0.00 0.00 81 1013.7
20260904200209 30 137 12.9 20.9 0.00 0.00 0.00 81 1013.9
20260904195145 30 0 12.9 22.5 0.00 0.00 0.00 82 1014.2
20260904194125 30 0 11.3 24.1 0.00 0.00 0.00 82 1014.3
20260904191932 30 107 11.3 22.5 0.00 0.00 0.00 81 1014.2
20260904185839 31 0 11.3 20.9 0.00 0.00 0.00 80 1014.5
20260904184839 30 108 11.3 19.3 0.00 0.00 0.00 81 1014.6
20260904183830 30 126 11.3 19.3 0.00 0.00 0.00 81 1014.7
20260904182827 30 60 11.3 24.1 0.00 0.00 0.00 81 1015.1
20260904181815 30 96 9.7 19.3 0.00 0.00 0.00 80 1014.9
20260904180814 31 163 9.7 20.9 0.00 0.00 0.00 80 1015.2
20260904175758 30 96 11.3 20.9 0.00 0.00 0.00 80 1015.3
20260904172533 30 114 12.9 20.9 0.00 0.00 0.00 80 1015.5
20260904171545 31 143 9.7 17.7 0.00 0.00 0.00 78 1015.6
20260904165430 31 131 8.0 16.1 0.00 0.00 0.00 79 1015.8
20260904164436 31 119 4.8 12.9 0.00 0.00 0.00 75 1015.8
20260904163438 31 85 4.8 12.9 0.00 0.00 0.00 76 1015.8
20260904162433 31 160 6.4 12.9 0.00 0.00 0.00 76 1015.8
20260904161406 31 88 6.4 12.9 0.00 0.00 0.00 77 1016.0
20260904155207 31 121 6.4 14.5 0.00 0.00 0.00 74 1016.4
20260904154209 31 184 9.7 17.7 0.00 0.00 0.00 73 1016.4
20260904152016 31 195 12.9 17.7 0.00 0.00 0.00 71 1016.2
20260904150952 31 212 12.9 17.7 0.00 0.00 0.00 72 1016.1